GW0132 Weather Reports


Display with metric or nautical units.
time (UTC)temp
F
wind
direction
speed
MPH
gust
MPH
rain 1hr
in
rain 24hr
in
rain mn
in
humidity
%
barometer
mb
20260504045426 51 258 0.0 0.0 0.00 0.00 0.00 61 1006.9
20260504044922 51 248 1.0 1.0 0.00 0.00 0.00 61 1007.0
20260504044420 51 229 0.0 1.0 0.00 0.00 0.00 60 1006.7
20260504043917 51 240 0.0 1.0 0.00 0.00 0.00 60 1006.9
20260504043414 51 227 1.0 1.0 0.00 0.00 0.00 59 1007.0
20260504042912 51 244 0.0 1.0 0.00 0.00 0.00 59 1007.1
20260504042408 52 185 1.0 2.0 0.00 0.00 0.00 59 1007.0
20260504041904 52 268 1.0 1.0 0.00 0.00 0.00 58 1006.9
20260504041400 52 240 3.0 5.0 0.00 0.00 0.00 57 1007.2
20260504040856 53 230 2.0 3.0 0.00 0.00 0.00 57 1006.9
20260504040354 53 219 3.0 3.0 0.00 0.00 0.00 58 1007.1
20260504035850 53 208 3.0 5.0 0.00 0.00 0.00 57 1007.0
20260504035348 53 226 2.0 2.0 0.00 0.00 0.00 57 1007.0
20260504034844 53 258 2.0 3.0 0.00 0.00 0.00 56 1007.0
20260504034342 53 253 4.0 6.0 0.00 0.00 0.00 56 1006.9
20260504033838 54 253 1.0 1.0 0.00 0.00 0.00 56 1007.1
20260504033337 54 256 1.0 1.0 0.00 0.00 0.00 55 1006.7
20260504032833 54 261 1.0 1.0 0.00 0.00 0.00 55 1006.9
20260504032330 54 254 1.0 1.0 0.00 0.00 0.00 55 1007.0
20260504031827 55 259 2.0 2.0 0.00 0.00 0.00 54 1006.9
20260504031324 55 329 2.0 3.0 0.00 0.00 0.00 54 1006.9
20260504030820 54 250 2.0 2.0 0.00 0.00 0.00 54 1007.0
20260504030318 54 261 2.0 2.0 0.00 0.00 0.00 55 1007.1
20260504025814 54 223 3.0 3.0 0.00 0.00 0.00 55 1006.7
20260504025311 54 142 3.0 3.0 0.00 0.00 0.00 54 1006.7
20260504024808 54 258 2.0 3.0 0.00 0.00 0.00 55 1006.6
20260504024304 54 265 1.0 1.0 0.00 0.00 0.00 55 1007.0
20260504023801 54 308 4.0 6.0 0.00 0.00 0.00 55 1007.2
20260504023257 55 160 1.0 1.0 0.00 0.00 0.00 55 1007.2
20260504022753 55 206 6.0 8.0 0.00 0.00 0.00 54 1007.1
20260504022250 55 309 0.0 1.0 0.00 0.00 0.00 54 1007.3
20260504021747 54 218 1.0 2.0 0.00 0.00 0.00 54 1007.3
20260504021244 55 254 1.0 1.0 0.00 0.00 0.00 53 1007.4
20260504020741 55 296 4.0 5.0 0.00 0.00 0.00 53 1007.4
20260504020237 55 226 1.0 1.0 0.00 0.00 0.00 53 1007.3
20260504015733 55 258 1.0 1.0 0.00 0.00 0.00 54 1007.4
20260504015230 53 177 2.0 3.0 0.00 0.00 0.00 55 1007.5
20260504014726 53 260 0.0 0.0 0.00 0.00 0.00 56 1007.3
20260504014223 53 265 0.0 1.0 0.00 0.00 0.00 57 1007.3
20260504013721 53 277 0.0 1.0 0.00 0.00 0.00 59 1007.4
20260504013218 53 242 1.0 1.0 0.00 0.00 0.00 59 1007.3
20260504012714 53 265 1.0 1.0 0.00 0.00 0.00 58 1007.6
20260504012213 54 268 1.0 2.0 0.00 0.00 0.00 58 1007.8
20260504011709 53 261 0.0 1.0 0.00 0.00 0.00 56 1007.8
20260504011206 53 269 0.0 1.0 0.00 0.00 0.00 57 1007.5
20260504010702 53 257 2.0 3.0 0.00 0.00 0.00 58 1007.7
20260504010157 53 238 3.0 5.0 0.00 0.00 0.00 57 1007.6
20260504005654 53 255 1.0 2.0 0.00 0.00 0.00 58 1007.7
20260504005151 53 218 3.0 6.0 0.00 0.00 0.00 58 1007.6
20260504004649 54 266 1.0 2.0 0.00 0.00 0.00 59 1007.5
20260504004146 53 242 5.0 8.0 0.00 0.00 0.00 57 1007.9
20260504003642 53 308 5.0 10.0 0.00 0.00 0.00 58 1007.9
20260504003139 53 307 3.0 3.0 0.00 0.00 0.00 58 1008.3
20260504002636 53 229 2.0 3.0 0.00 0.00 0.00 57 1008.2
20260504002134 54 269 2.0 2.0 0.00 0.00 0.00 57 1008.0
20260504001631 54 269 2.0 3.0 0.00 0.00 0.00 55 1008.0
20260504001127 54 276 3.0 3.0 0.00 0.00 0.00 55 1007.9
20260504000625 54 294 10.0 22.0 0.00 0.00 0.00 54 1007.9
20260504000122 54 274 4.0 6.0 0.00 0.00 0.00 54 1007.8
20260503235620 54 310 3.0 6.0 0.00 0.00 0.00 54 1007.8
20260503235116 54 280 1.0 1.0 0.00 0.00 0.00 54 1007.8
20260503234614 54 352 3.0 5.0 0.00 0.00 0.00 53 1007.8
20260503234112 54 306 2.0 2.0 0.00 0.00 0.00 53 1007.5
20260503233609 54 274 3.0 6.0 0.00 0.00 0.00 55 1007.5
20260503233104 55 187 3.0 3.0 0.00 0.00 0.00 54 1007.8
20260503232602 55 340 3.0 5.0 0.00 0.00 0.00 52 1008.1
20260503232059 55 272 4.0 5.0 0.00 0.00 0.00 52 1007.9
20260503231557 55 309 5.0 8.0 0.00 0.00 0.00 51 1007.7
20260503231053 55 6 2.0 2.0 0.00 0.00 0.00 51 1007.3
20260503230549 56 302 3.0 3.0 0.00 0.00 0.00 52 1007.6
20260503230047 56 278 4.0 6.0 0.00 0.00 0.00 50 1007.7
20260503225544 56 92 7.0 9.0 0.00 0.00 0.00 50 1007.4
20260503225039 56 119 3.0 5.0 0.00 0.00 0.00 49 1007.2
20260503224537 56 258 1.0 2.0 0.00 0.00 0.00 48 1007.2
20260503224035 56 288 5.0 7.0 0.00 0.00 0.00 48 1007.4
20260503223533 57 326 2.0 5.0 0.00 0.00 0.00 46 1007.2
20260503223028 57 289 2.0 2.0 0.00 0.00 0.00 47 1007.1
20260503222526 57 261 2.0 2.0 0.00 0.00 0.00 44 1007.0
20260503222024 57 327 2.0 3.0 0.00 0.00 0.00 46 1007.1
20260503221522 57 118 2.0 2.0 0.00 0.00 0.00 45 1007.3
20260503221019 57 265 4.0 6.0 0.00 0.00 0.00 46 1007.6
20260503220515 57 304 1.0 2.0 0.00 0.00 0.00 47 1007.3
20260503220012 57 318 5.0 6.0 0.00 0.00 0.00 47 1007.2
20260503215509 57 280 1.0 1.0 0.00 0.00 0.00 46 1007.5
20260503215006 57 325 7.0 13.0 0.00 0.00 0.00 46 1007.1
20260503214504 57 265 1.0 2.0 0.00 0.00 0.00 47 1007.4
20260503214001 57 279 2.0 3.0 0.00 0.00 0.00 46 1007.4
20260503213459 57 239 2.0 2.0 0.00 0.00 0.00 45 1007.3
20260503212955 57 309 4.0 6.0 0.00 0.00 0.00 46 1007.3
20260503212453 58 301 2.0 2.0 0.00 0.00 0.00 49 1007.3
20260503211950 58 313 2.0 3.0 0.00 0.00 0.00 47 1007.2
20260503211447 57 307 3.0 3.0 0.00 0.00 0.00 45 1006.9
20260503210942 58 300 4.0 6.0 0.00 0.00 0.00 46 1007.2
20260503210439 58 340 2.0 5.0 0.00 0.00 0.00 47 1007.1
20260503205934 58 182 5.0 7.0 0.00 0.00 0.00 43 1007.1
20260503205431 59 214 4.0 7.0 0.00 0.00 0.00 45 1007.0
20260503204927 59 271 4.0 8.0 0.00 0.00 0.00 42 1007.2
20260503204425 59 140 5.0 8.0 0.00 0.00 0.00 42 1007.0
20260503203922 59 168 1.0 2.0 0.00 0.00 0.00 43 1007.1
20260503203419 59 313 5.0 8.0 0.00 0.00 0.00 46 1007.4
20260503202916 57 306 5.0 6.0 0.00 0.00 0.00 42 1007.5
20260503202414 57 281 1.0 2.0 0.00 0.00 0.00 44 1007.5
20260503201913 59 312 1.0 2.0 0.00 0.00 0.00 42 1007.6
20260503201409 59 265 1.0 2.0 0.00 0.00 0.00 45 1007.4
20260503200907 58 204 4.0 6.0 0.00 0.00 0.00 41 1007.6
20260503200403 59 7 3.0 7.0 0.00 0.00 0.00 40 1008.0
20260503195900 58 264 2.0 2.0 0.00 0.00 0.00 41 1007.8
20260503195356 57 234 4.0 6.0 0.00 0.00 0.00 43 1008.0
20260503194853 56 291 2.0 2.0 0.00 0.00 0.00 43 1008.2
20260503194349 56 263 2.0 3.0 0.00 0.00 0.00 43 1008.2
20260503193846 56 293 6.0 10.0 0.00 0.00 0.00 43 1008.2
20260503193341 56 305 3.0 3.0 0.00 0.00 0.00 47 1008.4
20260503192837 57 247 4.0 6.0 0.00 0.00 0.00 41 1008.3
20260503192333 57 305 2.0 2.0 0.00 0.00 0.00 46 1008.4
20260503191829 57 264 2.0 2.0 0.00 0.00 0.00 45 1008.4
20260503191327 58 165 2.0 2.0 0.00 0.00 0.00 41 1008.5
20260503190824 58 307 1.0 2.0 0.00 0.00 0.00 44 1008.7
20260503190321 57 274 2.0 2.0 0.00 0.00 0.00 44 1008.7
20260503185818 55 142 1.0 2.0 0.00 0.00 0.00 45 1009.0
20260503185313 55 285 2.0 3.0 0.00 0.00 0.00 45 1009.1
20260503184808 55 267 3.0 5.0 0.00 0.00 0.00 47 1009.0
20260503184305 56 208 2.0 3.0 0.00 0.00 0.00 46 1009.2
20260503183800 56 260 2.0 2.0 0.00 0.00 0.00 42 1009.3
20260503183258 57 166 4.0 5.0 0.00 0.00 0.00 43 1009.1
20260503182755 57 236 3.0 3.0 0.00 0.00 0.00 44 1009.4
20260503182254 55 335 3.0 6.0 0.00 0.00 0.00 43 1009.3
20260503181750 56 298 3.0 3.0 0.00 0.00 0.00 45 1009.2
20260503181247 57 314 4.0 5.0 0.00 0.00 0.00 41 1009.4
20260503180744 56 205 3.0 6.0 0.00 0.00 0.00 45 1009.6
20260503180242 53 278 2.0 2.0 0.00 0.00 0.00 45 1009.7
20260503175738 54 293 1.0 1.0 0.00 0.00 0.00 45 1009.7
20260503175237 55 316 6.0 8.0 0.00 0.00 0.00 46 1009.6
20260503174732 54 323 5.0 10.0 0.00 0.00 0.00 45 1009.6
20260503174230 55 287 4.0 5.0 0.00 0.00 0.00 44 1009.9
20260503173725 54 250 1.0 2.0 0.00 0.00 0.00 44 1009.7
20260503173221 55 278 2.0 2.0 0.00 0.00 0.00 48 1009.6
20260503172718 55 310 2.0 2.0 0.00 0.00 0.00 46 1009.8
20260503172215 55 309 1.0 2.0 0.00 0.00 0.00 44 1009.7
20260503171711 56 272 1.0 2.0 0.00 0.00 0.00 47 1009.8
20260503171209 57 198 2.0 2.0 0.00 0.00 0.00 50 1009.5
20260503170705 56 214 1.0 2.0 0.00 0.00 0.00 48 1009.9
20260503170202 55 298 4.0 6.0 0.00 0.00 0.00 48 1009.9
20260503160124 54 288 2.0 2.0 0.00 0.00 0.00 54 1010.4
20260503150554 53 240 1.0 1.0 0.00 0.00 0.00 53 1010.8
20260503130943 45 255 0.0 1.0 0.00 0.00 0.00 67 1012.0
20260503130441 45 298 3.0 3.0 0.00 0.00 0.00 68 1011.9
20260503110332 31 256 0.0 0.0 0.00 0.00 0.00 99 1012.0
20260503100258 28 253 0.0 0.0 0.00 0.00 0.00 99 1011.3
20260503090218 29 264 0.0 0.0 0.00 0.00 0.00 97 1011.3
20260503081145 30 266 0.0 0.0 0.00 0.00 0.00 96 1011.4
20260503080641 30 263 0.0 0.0 0.00 0.00 0.00 95 1011.5
20260503080138 30 264 0.0 0.0 0.00 0.00 0.00 95 1011.4
20260503072615 32 254 0.0 0.0 0.00 0.00 0.00 92 1011.4
20260503072112 33 263 0.0 0.0 0.00 0.00 0.00 91 1011.6
20260503071608 33 261 0.0 0.0 0.00 0.00 0.00 91 1011.5
20260503071105 34 264 0.0 0.0 0.00 0.00 0.00 90 1011.4
20260503070602 35 259 0.0 0.0 0.00 0.00 0.00 90 1011.5
20260503055020 38 262 0.0 0.0 0.00 0.00 0.00 83 1011.8
20260503054516 39 262 0.0 0.0 0.00 0.00 0.00 83 1011.7
20260503054014 39 256 0.0 0.0 0.00 0.00 0.00 82 1011.8
20260503053512 39 234 0.0 1.0 0.00 0.00 0.00 82 1011.9
20260503053009 39 258 0.0 0.0 0.00 0.00 0.00 82 1011.9
20260503052506 39 266 0.0 0.0 0.00 0.00 0.00 82 1012.1
20260503052002 39 262 0.0 0.0 0.00 0.00 0.00 81 1012.1
20260503051458 39 240 1.0 1.0 0.00 0.00 0.00 81 1012.1
20260503050956 39 235 0.0 1.0 0.00 0.00 0.00 81 1012.3
20260503050451 39 265 0.0 0.0 0.00 0.00 0.00 81 1012.1
20260503045949 39 261 0.0 0.0 0.00 0.00 0.00 81 1012.4